Regional Weather Roundup
Issued by NWS

Home | Current Version | Previous Version | Text Only | Print | Product List | Glossary Off
Versions: 1 2 3 4 5 6 7 8 9 10 11 12 13 14 15 16 17 18 19 20 21 22 23 24 25 26 27 28 29 30 31 32 33 34 35 36 37 38 39 40 41 42 43 44 45 46 47 48 49 50

000
ASUS43 KLMK 291602
RWRKY
KENTUCKY REGIONAL WEATHER ROUNDUP
NATIONAL WEATHER SERVICE LOUISVILLE KY
1200 PM EDT TUE JUL 29 2014

NOTE "FAIR" INDICATES FEW OR NO CLOUDS BELOW 12,000 FEET
WITH NO SIGNIFICANT WEATHER AND/OR OBSTRUCTIONS TO VISIBILITY.

KYZ001>023-026-027-061>063-070>075-291700-
WESTERN AND SOUTH CENTRAL KENTUCKY

CITY           SKY/WX    TMP DP  RH WIND       PRES   REMARKS
PADUCAH        SUNNY     77  55  46 VRB5      30.14R
HENDERSON      SUNNY     73  54  49 N7        30.12R
OWENSBORO      SUNNY     73  54  51 NW12      30.12S
HOPKINSVILLE   SUNNY     74  51  44 N9G18     30.13R
BOWLING GREEN  SUNNY     73  51  46 NE8       30.12R
GLASGOW        SUNNY     69  52  55 N9        30.11S
$$

KYZ024-025-028>034-038-045-046-053-291700-
NORTH CENTRAL KENTUCKY

CITY           SKY/WX    TMP DP  RH WIND       PRES   REMARKS
LOUISVILLE/SDF MOSUNNY   71  53  52 VRB6      30.10R
LOUISVILLE/LOU SUNNY     68  51  54 VRB6      30.10S
FORT KNOX      SUNNY     68  54  59 W10       30.10R
$$

KYZ035>037-039>044-047>052-055>060-089>105-291700-
NORTHEAST KENTUCKY

CITY           SKY/WX    TMP DP  RH WIND       PRES   REMARKS
LEXINGTON      MOSUNNY   67  56  67 W6        30.09R
COVINGTON      MOSUNNY   67  48  50 N12G17    30.08S
FRANKFORT      PTSUNNY   66  52  60 N9        30.09R
$$

KYZ054-064>069-076>088-106>120-291700-
SOUTHEAST KENTUCKY

CITY           SKY/WX    TMP DP  RH WIND       PRES   REMARKS
JACKSON        MOSUNNY   64  51  62 W7        30.08S
LONDON         MOSUNNY   67  49  52 NW8       30.09R
SOMERSET       NOT AVBL
MIDDLESBORO    CLOUDY    67  54  61 NW3       30.08S
MONTICELLO     SUNNY     69  53  56 NW6       30.12R
$$



USA.gov is the U.S. government's official web portal to all federal, state and local government web resources and services.